Regional Weather Roundup
Issued by NWS

Home | Current Version | Previous Version | Graphics & Text | Print | Product List | Glossary On
Versions: 1 2 3 4 5 6 7 8 9 10 11 12 13 14 15 16 17 18 19 20 21 22 23 24 25 26 27 28 29 30 31 32 33 34 35 36 37 38 39 40 41 42 43 44 45 46 47 48 49 50
000
ASUS43 KDMX 061807
RWRIA

WEATHER ROUNDUP FOR IOWA
NATIONAL WEATHER SERVICE DES MOINES IA
100 PM CDT WED MAY 06 2015

NOTE: "FAIR" INDICATES FEW OR NO CLOUDS BELOW 12,000 FEET WITH NO
SIGNIFICANT WEATHER AND/OR OBSTRUCTIONS TO VISIBILITY.

* - THESE STATIONS ARE NOT NWS STATIONS...THUS NOT UNDER NWS
QUALITY CONTROL.  THEY ALSO DO NOT REPORT WEATHER SUCH
AS PRECIPITATION OR FOG.

IAZ001>003-012>014-020>022-031>034-043>046-061900-
   NORTHWEST IOWA

CITY           SKY/WX    TMP DP  RH WIND       PRES   REMARKS
CARROLL *      PTSUNNY   73  61  64 S25G32    29.88F
CHEROKEE *     CLOUDY    70  61  72 S24G33    29.84F
DENISON *      PTSUNNY   72  61  68 S25G33    29.84F
LE MARS *      CLOUDY    68  59  73 S18G29    29.82S
ORANGE CITY *  PTSUNNY   66  57  72 S21G30    29.82F
SHELDON *      PTSUNNY   66 N/A N/A SE23G30   29.82F
SIOUX CITY     CLOUDY    68  60  75 S23G32    29.81F
6HR MIN TEMP:  63; 6HR MAX TEMP:  68; 6HR PCP:  0.05;

SPENCER        CLOUDY    68  61  78 SE21G29   29.86F
6HR MIN TEMP:  62; 6HR MAX TEMP:  74; 6HR PCP:  0.02;

STORM LAKE *   MOSUNNY   68  61  77 S26       29.87F
$$

IAZ055>058-069>071-079>083-090>094-061900-
   SOUTHWEST IOWA

CITY           SKY/WX    TMP DP  RH WIND       PRES   REMARKS
ATLANTIC *     MOSUNNY   73  59  60 S23G32    29.89S
AUDUBON *      MOSUNNY   72  61  68 S21G29    29.90F
CLARINDA *     CLOUDY    72  61  68 S21       29.92S
COUNCIL BLFS * CLOUDY    70  64  83 S21G33    29.86F
CRESTON *      MOSUNNY   70  61  73 S20       29.94S
HARLAN  *      PTSUNNY   72  64  78 S22G41    29.90S
LAMONI         CLOUDY    72  59  63 S22G29    29.96F
6HR MIN TEMP:  66; 6HR MAX TEMP:  72;

RED OAK *      CLOUDY    70  61  73 S20G32    29.89S
SHENANDOAH *   CLOUDY    72  63  73 S24G31    29.88F
$$

IAZ047>049-059>061-072>074-084-061900-
   CENTRAL IOWA

CITY           SKY/WX    TMP DP  RH WIND       PRES   REMARKS
AMES           CLOUDY    72  58  61 S23G30    29.93S
6HR MIN TEMP:  63; 6HR MAX TEMP:  76;

ANKENY *       CLOUDY    75  61  60 S20G30    29.93F
CHARITON *     MOSUNNY   73  59  60 S24G35    29.97S
DES MOINES     CLOUDY    76  59  55 S22G29    29.94F
6HR MIN TEMP:  66; 6HR MAX TEMP:  76;

GRINNELL*        N/A     77  59  53 SE25G33   29.96F
KNOXVILLE *    PTSUNNY   77  59  53 S18G29    29.95S
MARSHALLTOWN     N/A     77  59  53 SE22G29   29.93F
6HR MIN TEMP:  62; 6HR MAX TEMP:  78;

PELLA *          N/A     75  62  63 S14G29    29.98R
PERRY *        PTSUNNY   72  61  68 S24G32    29.92F
$$

IAZ004>006-015-016-023>025-035-036-061900-
   NORTH CENTRAL IOWA

CITY           SKY/WX    TMP DP  RH WIND       PRES   REMARKS
ALGONA *       PTSUNNY   72 -29   1 SE23      29.90S
CLARION *      MOSUNNY   73  64  73 SE25G32   29.91F
ESTHERVILLE    LGT RAIN  70  61  73 SE26G37   29.87F
6HR MIN TEMP:  59; 6HR MAX TEMP:  74; 6HR PCP: TRACE;

FORT DODGE *   CLOUDY    72  57  60 S15G26    29.92S
MASON CITY       N/A     71  63  75 SE20G29   29.96F
6HR MIN TEMP:  56; 6HR MAX TEMP:  73;

FOREST CITY *  SUNNY     68  61  77 SE20G28   29.93F HAZE
IOWA FALLS *     N/A     75  63  64 SE17      29.94F
$$

IAZ007>011-017>019-026>030-037>042-050>054-066-061900-
   NORTHEAST IOWA

CITY           SKY/WX    TMP DP  RH WIND       PRES   REMARKS
CEDAR RAPIDS     N/A     79  56  45 S20G33    30.00F HX  80
6HR MIN TEMP:  56; 6HR MAX TEMP:  79;

CHARLES CITY * SUNNY     72  66  83 SE15G23   29.99F
CLINTON *        N/A     75  63  64 SE13      30.10F
DECORAH *      SUNNY     68  61  77 SE14      30.03F
DUBUQUE          N/A     72  61  68 SE9       30.08F
6HR MIN TEMP:  53; 6HR MAX TEMP:  72;

MONTICELLO *   SUNNY     73  64  73 SE15G22   30.04F
OELWEIN *      SUNNY     75  64  69 SE20      30.02F
WATERLOO         N/A     76  61  59 SE17G26   29.97F
6HR MIN TEMP:  57; 6HR MAX TEMP:  76;

$$

IAZ064-065-067-068-078-061900-
   EAST CENTRAL IOWA

CITY           SKY/WX    TMP DP  RH WIND       PRES   REMARKS
DAVENPORT        N/A     80  58  46 S15G23    30.07F HX  80
6HR MIN TEMP:  56; 6HR MAX TEMP:  80;

IOWA CITY        N/A     80  56  43 S16G26    30.03F HX  80
6HR MIN TEMP:  57; 6HR MAX TEMP:  80;

MT. PLEASANT * PTSUNNY   79  56  44 S18G30    30.03F
MUSCATINE *    MOSUNNY   81  54  39 S18G31    30.03F HX  80
QUAD CITIES      N/A     81  56  42 S17G23    30.05F HX  81
6HR MIN TEMP:  57; 6HR MAX TEMP:  81;

$$

IAZ062-063-075>077-085>089-095>099-061900-
   SOUTHEAST IOWA

CITY           SKY/WX    TMP DP  RH WIND       PRES   REMARKS
BURLINGTON       N/A     81  58  45 S17       30.05F HX  81
6HR MIN TEMP:  63; 6HR MAX TEMP:  81;

FAIRFIELD *    SUNNY     81  57  44 SE23G33   29.99F HX  81
FORT MADISON * MOSUNNY   79  57  47 S18G25    30.05F HX  80
KEOKUK *       MOSUNNY   81  59  47 S17G26    30.03F HX  81
OSKALOOSA *    CLOUDY    78  59  51 S21G29    29.98F
CENTERVILLE *  SUNNY     75  63  64 S17G24    30.01S
OTTUMWA        PTSUNNY   79  59  50 S23G32    29.97F HX  80
6HR MIN TEMP:  63; 6HR MAX TEMP:  80;

WASHINGTON *   MOSUNNY   81 -31   1 S21G39    30.01F
$$

ABBREVIATIONS USED IN REMARKS
   TC - TEMPERATURES IN CELSIUS
  WCI - WIND CHILL INDEX
   HX - HEAT INDEX
  VSB - VISIBILITY
$$



USA.gov is the U.S. government's official web portal to all federal, state and local government web resources and services.